Climatologie pour Saint-Brevin les Pins
Jour • Résumé pour juillet 5, 2017 Système :  Métrique    Anglais   Mixte
« - 1 jour
+ 1 jour »
Jour Semaine Mois Année Personnalisé
  Maximum : Minimum : Moyenne :
Température sous abri : 34.8 °C 17.7 °C 24.4 °C
Point de rosée : 19.6 °C 15.0 °C 17.3 °C
Humidité : 88 % 37 % 68 %
Vitesse du vent : 25.7 km/h 0.0 km/h 5.8 km/h
Rafale : 30.6 km/h - -
Direction :- - ESE
Pression : 1015.5 hPa 1011.4 hPa -
Précipitations : 0.0 mm    
Historical Graphs
 
 
Tableau de données pour juillet 5, 2017
Heure Tempé Pt rosée Pression Vent Vitesse Rafale Humidité Taux pluie (/hr) Soleil
00:00 21.7 °C 15.0 °C 1015.1 hPa ENE 1.6 km/h 12.9 km/h 66 % 0.0 mm 0 W/m2
00:10 21.6 °C 15.2 °C 1015.1 hPa NE 4.8 km/h 11.3 km/h 67 % 0.0 mm 0 W/m2
00:15 21.3 °C 15.2 °C 1015.1 hPa NE 3.2 km/h 11.3 km/h 68 % 0.0 mm 0 W/m2
00:20 21.1 °C 15.1 °C 1015.1 hPa Calm   11.3 km/h 69 % 0.0 mm 0 W/m2
00:25 21.2 °C 15.5 °C 1015.5 hPa ENE 1.6 km/h 11.3 km/h 70 % 0.0 mm 0 W/m2
00:30 21.1 °C 15.6 °C 1015.5 hPa NE 1.6 km/h 8.0 km/h 71 % 0.0 mm 0 W/m2
00:35 21.1 °C 15.8 °C 1015.5 hPa ENE 6.4 km/h 8.0 km/h 72 % 0.0 mm 0 W/m2
00:40 21.1 °C 15.6 °C 1015.5 hPa NE 1.6 km/h 8.0 km/h 71 % 0.0 mm 0 W/m2
00:45 20.9 °C 15.9 °C 1015.5 hPa Calm   9.7 km/h 73 % 0.0 mm 0 W/m2
00:50 20.9 °C 15.9 °C 1015.5 hPa NNE 1.6 km/h 9.7 km/h 73 % 0.0 mm 0 W/m2
00:55 20.8 °C 15.8 °C 1015.5 hPa ENE 1.6 km/h 11.3 km/h 73 % 0.0 mm 0 W/m2
01:00 20.8 °C 16.0 °C 1015.5 hPa NE 4.8 km/h 11.3 km/h 74 % 0.0 mm 0 W/m2
01:05 20.7 °C 16.1 °C 1015.5 hPa NE 9.7 km/h 12.9 km/h 75 % 0.0 mm 0 W/m2
01:10 20.6 °C 16.0 °C 1015.5 hPa Calm   12.9 km/h 75 % 0.0 mm 0 W/m2
01:15 20.6 °C 16.2 °C 1015.5 hPa ENE 1.6 km/h 16.1 km/h 76 % 0.0 mm 0 W/m2
01:25 20.4 °C 16.1 °C 1015.1 hPa ENE 4.8 km/h 12.9 km/h 76 % 0.0 mm 0 W/m2
01:30 20.3 °C 16.2 °C 1015.1 hPa NNE 1.6 km/h 11.3 km/h 77 % 0.0 mm 0 W/m2
01:35 20.3 °C 16.3 °C 1015.1 hPa NE 1.6 km/h 9.7 km/h 78 % 0.0 mm 0 W/m2
01:40 20.1 °C 16.2 °C 1015.1 hPa NE 1.6 km/h 9.7 km/h 78 % 0.0 mm 0 W/m2
01:45 19.9 °C 16.2 °C 1015.1 hPa ENE 11.3 km/h 11.3 km/h 79 % 0.0 mm 0 W/m2
01:50 20.0 °C 16.4 °C 1015.1 hPa ENE 1.6 km/h 14.5 km/h 80 % 0.0 mm 0 W/m2
01:55 19.9 °C 16.4 °C 1015.1 hPa NNE 1.6 km/h 14.5 km/h 80 % 0.0 mm 0 W/m2
02:00 19.9 °C 16.4 °C 1015.1 hPa ENE 4.8 km/h 12.9 km/h 80 % 0.0 mm 0 W/m2
02:05 19.9 °C 16.3 °C 1015.1 hPa ENE 1.6 km/h 12.9 km/h 80 % 0.0 mm 0 W/m2
02:10 19.8 °C 16.5 °C 1015.1 hPa ENE 4.8 km/h 11.3 km/h 81 % 0.0 mm 0 W/m2
02:15 19.7 °C 16.4 °C 1015.1 hPa Calm   11.3 km/h 81 % 0.0 mm 0 W/m2
02:20 19.7 °C 16.4 °C 1015.1 hPa NE 8.0 km/h 11.3 km/h 81 % 0.0 mm 0 W/m2
02:25 19.6 °C 16.4 °C 1015.1 hPa Calm   11.3 km/h 82 % 0.0 mm 0 W/m2
02:30 19.5 °C 16.3 °C 1015.1 hPa NE 4.8 km/h 11.3 km/h 82 % 0.0 mm 0 W/m2
02:35 19.4 °C 16.5 °C 1015.1 hPa NE 8.0 km/h 11.3 km/h 83 % 0.0 mm 0 W/m2
02:40 19.4 °C 16.6 °C 1015.1 hPa Calm   14.5 km/h 84 % 0.0 mm 0 W/m2
02:45 19.3 °C 16.5 °C 1015.1 hPa NE 6.4 km/h 14.5 km/h 84 % 0.0 mm 0 W/m2
02:50 19.2 °C 16.6 °C 1014.8 hPa NNE 3.2 km/h 12.9 km/h 85 % 0.0 mm 0 W/m2
02:55 19.1 °C 16.5 °C 1014.8 hPa Calm   9.7 km/h 85 % 0.0 mm 0 W/m2
03:00 19.1 °C 16.5 °C 1014.8 hPa ENE 1.6 km/h 9.7 km/h 85 % 0.0 mm 0 W/m2
03:05 19.1 °C 16.7 °C 1015.1 hPa ENE 6.4 km/h 11.3 km/h 86 % 0.0 mm 0 W/m2
03:10 18.9 °C 16.5 °C 1014.8 hPa ENE 4.8 km/h 11.3 km/h 86 % 0.0 mm 0 W/m2
03:15 19.0 °C 16.6 °C 1014.8 hPa ENE 4.8 km/h 14.5 km/h 86 % 0.0 mm 0 W/m2
03:20 19.1 °C 16.5 °C 1014.8 hPa North 3.2 km/h 14.5 km/h 85 % 0.0 mm 0 W/m2
03:25 19.1 °C 16.5 °C 1014.8 hPa NE 4.8 km/h 11.3 km/h 85 % 0.0 mm 0 W/m2
03:30 19.1 °C 16.5 °C 1014.8 hPa NE 4.8 km/h 12.9 km/h 85 % 0.0 mm 0 W/m2
03:35 19.1 °C 16.3 °C 1014.8 hPa Calm   12.9 km/h 84 % 0.0 mm 0 W/m2
03:40 18.9 °C 16.4 °C 1014.8 hPa NE 3.2 km/h 11.3 km/h 85 % 0.0 mm 0 W/m2
03:45 18.9 °C 16.4 °C 1014.8 hPa NE 3.2 km/h 12.9 km/h 85 % 0.0 mm 0 W/m2
03:50 18.9 °C 16.3 °C 1014.8 hPa NE 3.2 km/h 14.5 km/h 85 % 0.0 mm 0 W/m2
03:55 18.8 °C 16.3 °C 1014.8 hPa Calm   14.5 km/h 85 % 0.0 mm 0 W/m2
04:00 18.8 °C 16.3 °C 1014.8 hPa NNE 6.4 km/h 12.9 km/h 85 % 0.0 mm 0 W/m2
04:05 18.8 °C 16.2 °C 1014.4 hPa NE 1.6 km/h 12.9 km/h 85 % 0.0 mm 0 W/m2
04:10 18.8 °C 16.3 °C 1014.4 hPa NE 3.2 km/h 12.9 km/h 85 % 0.0 mm 0 W/m2
04:15 18.8 °C 16.2 °C 1014.4 hPa East 1.6 km/h 12.9 km/h 85 % 0.0 mm 0 W/m2
04:20 18.7 °C 16.1 °C 1014.4 hPa NE 1.6 km/h 16.1 km/h 85 % 0.0 mm 0 W/m2
04:25 18.6 °C 16.0 °C 1014.4 hPa North 6.4 km/h 16.1 km/h 85 % 0.0 mm 0 W/m2
04:30 18.6 °C 16.0 °C 1014.4 hPa North 8.0 km/h 16.1 km/h 85 % 0.0 mm 0 W/m2
04:35 18.6 °C 16.0 °C 1014.4 hPa NNE 6.4 km/h 16.1 km/h 85 % 0.0 mm 0 W/m2
04:40 18.6 °C 16.0 °C 1014.4 hPa Calm   14.5 km/h 85 % 0.0 mm 0 W/m2
04:45 18.5 °C 15.9 °C 1014.4 hPa ENE 1.6 km/h 9.7 km/h 85 % 0.0 mm 0 W/m2
04:50 18.4 °C 15.9 °C 1014.4 hPa NE 1.6 km/h 8.0 km/h 85 % 0.0 mm 0 W/m2
04:55 18.4 °C 15.8 °C 1014.4 hPa Calm   12.9 km/h 85 % 0.0 mm 0 W/m2
05:00 18.2 °C 15.8 °C 1014.4 hPa NE 3.2 km/h 12.9 km/h 86 % 0.0 mm 0 W/m2
05:05 18.2 °C 15.8 °C 1014.4 hPa ENE 1.6 km/h 9.7 km/h 86 % 0.0 mm 0 W/m2
05:15 17.8 °C 15.6 °C 1014.4 hPa NE 6.4 km/h 8.0 km/h 87 % 0.0 mm 0 W/m2
05:20 17.8 °C 15.6 °C 1014.1 hPa ENE 4.8 km/h 11.3 km/h 87 % 0.0 mm 0 W/m2
05:25 17.8 °C 15.6 °C 1014.1 hPa NE 3.2 km/h 14.5 km/h 87 % 0.0 mm 0 W/m2
05:30 17.8 °C 15.8 °C 1014.4 hPa NE 1.6 km/h 14.5 km/h 88 % 0.0 mm 0 W/m2
05:40 17.7 °C 15.7 °C 1014.1 hPa NE 4.8 km/h 12.9 km/h 88 % 0.0 mm 0 W/m2
05:45 17.8 °C 15.8 °C 1014.1 hPa NE 11.3 km/h 14.5 km/h 88 % 0.0 mm 0 W/m2
05:50 17.8 °C 15.8 °C 1014.1 hPa NE 1.6 km/h 16.1 km/h 88 % 0.0 mm 0 W/m2
05:55 17.9 °C 15.7 °C 1014.1 hPa ENE 3.2 km/h 16.1 km/h 87 % 0.0 mm 0 W/m2
06:00 17.9 °C 15.9 °C 1014.1 hPa ENE 4.8 km/h 12.9 km/h 88 % 0.0 mm 0 W/m2
06:05 17.9 °C 15.9 °C 1013.8 hPa NE 3.2 km/h 9.7 km/h 88 % 0.0 mm 0 W/m2
06:10 17.9 °C 15.9 °C 1013.8 hPa NE 1.6 km/h 12.9 km/h 88 % 0.0 mm 0 W/m2
06:15 17.8 °C 15.6 °C 1013.8 hPa NE 4.8 km/h 12.9 km/h 87 % 0.0 mm 0 W/m2
06:20 17.8 °C 15.6 °C 1013.8 hPa NE 3.2 km/h 12.9 km/h 87 % 0.0 mm 0 W/m2
06:25 17.8 °C 15.6 °C 1014.1 hPa NE 8.0 km/h 12.9 km/h 87 % 0.0 mm 0 W/m2
06:30 17.8 °C 15.6 °C 1013.8 hPa East 8.0 km/h 11.3 km/h 87 % 0.0 mm 5 W/m2
06:35 17.7 °C 15.5 °C 1014.1 hPa NNE 3.2 km/h 17.7 km/h 87 % 0.0 mm 7 W/m2
06:40 17.8 °C 15.6 °C 1014.1 hPa ENE 8.0 km/h 19.3 km/h 87 % 0.0 mm 9 W/m2
06:45 17.8 °C 15.8 °C 1014.1 hPa ENE 4.8 km/h 19.3 km/h 88 % 0.0 mm 11 W/m2
06:50 17.8 °C 15.6 °C 1014.1 hPa ENE 6.4 km/h 16.1 km/h 87 % 0.0 mm 12 W/m2
06:55 17.8 °C 15.6 °C 1014.1 hPa NE 4.8 km/h 16.1 km/h 87 % 0.0 mm 14 W/m2
07:05 17.9 °C 15.7 °C 1014.1 hPa NNE 4.8 km/h 12.9 km/h 87 % 0.0 mm 19 W/m2
07:15 17.9 °C 15.7 °C 1014.1 hPa Calm   12.9 km/h 87 % 0.0 mm 30 W/m2
07:20 17.9 °C 15.7 °C 1014.1 hPa ENE 8.0 km/h 11.3 km/h 87 % 0.0 mm 39 W/m2
07:25 18.1 °C 15.9 °C 1014.1 hPa NE 1.6 km/h 12.9 km/h 87 % 0.0 mm 46 W/m2
07:30 18.2 °C 16.0 °C 1014.1 hPa ENE 6.4 km/h 12.9 km/h 87 % 0.0 mm 51 W/m2
07:35 18.4 °C 16.0 °C 1014.1 hPa NE 3.2 km/h 12.9 km/h 86 % 0.0 mm 58 W/m2
07:40 18.6 °C 16.2 °C 1014.1 hPa NNE 6.4 km/h 20.9 km/h 86 % 0.0 mm 63 W/m2
07:45 18.8 °C 16.2 °C 1014.1 hPa NE 3.2 km/h 20.9 km/h 85 % 0.0 mm 69 W/m2
07:50 19.0 °C 16.4 °C 1013.8 hPa ENE 12.9 km/h 17.7 km/h 85 % 0.0 mm 74 W/m2
07:55 19.2 °C 16.3 °C 1013.8 hPa ENE 8.0 km/h 19.3 km/h 83 % 0.0 mm 98 W/m2
08:00 19.4 °C 16.4 °C 1013.8 hPa NE 6.4 km/h 19.3 km/h 83 % 0.0 mm 239 W/m2
08:05 19.6 °C 16.5 °C 1013.8 hPa East 11.3 km/h 19.3 km/h 82 % 0.0 mm 253 W/m2
08:10 19.7 °C 16.6 °C 1013.8 hPa North 3.2 km/h 16.1 km/h 82 % 0.0 mm 265 W/m2
08:15 19.9 °C 16.5 °C 1013.8 hPa NE 8.0 km/h 14.5 km/h 81 % 0.0 mm 281 W/m2
08:20 20.1 °C 16.6 °C 1013.8 hPa East 11.3 km/h 14.5 km/h 80 % 0.0 mm 278 W/m2
08:25 20.4 °C 16.8 °C 1013.8 hPa East 1.6 km/h 14.5 km/h 80 % 0.0 mm 209 W/m2
08:30 20.4 °C 16.8 °C 1014.1 hPa NE 3.2 km/h 14.5 km/h 80 % 0.0 mm 128 W/m2
08:35 20.6 °C 17.0 °C 1014.1 hPa East 3.2 km/h 11.3 km/h 80 % 0.0 mm 309 W/m2
08:40 21.1 °C 16.9 °C 1014.1 hPa East 6.4 km/h 16.1 km/h 77 % 0.0 mm 338 W/m2
08:45 21.5 °C 16.9 °C 1014.1 hPa East 12.9 km/h 20.9 km/h 75 % 0.0 mm 332 W/m2
08:50 21.8 °C 16.9 °C 1014.1 hPa East 19.3 km/h 20.9 km/h 74 % 0.0 mm 371 W/m2
08:55 21.9 °C 16.9 °C 1013.8 hPa ESE 8.0 km/h 20.9 km/h 73 % 0.0 mm 302 W/m2
09:00 21.9 °C 16.6 °C 1013.8 hPa ENE 6.4 km/h 20.9 km/h 72 % 0.0 mm 218 W/m2
09:05 21.9 °C 16.8 °C 1013.8 hPa East 4.8 km/h 20.9 km/h 73 % 0.0 mm 158 W/m2
09:10 21.9 °C 16.9 °C 1013.8 hPa East 4.8 km/h 19.3 km/h 73 % 0.0 mm 271 W/m2
09:15 22.2 °C 16.9 °C 1013.8 hPa East 1.6 km/h 16.1 km/h 72 % 0.0 mm 309 W/m2
09:20 22.4 °C 17.1 °C 1013.8 hPa ENE 16.1 km/h 17.7 km/h 72 % 0.0 mm 288 W/m2
09:25 22.6 °C 17.0 °C 1013.8 hPa East 9.7 km/h 17.7 km/h 71 % 0.0 mm 264 W/m2
09:30 22.8 °C 17.0 °C 1013.8 hPa ENE 12.9 km/h 20.9 km/h 70 % 0.0 mm 269 W/m2
09:35 22.8 °C 17.0 °C 1013.8 hPa East 6.4 km/h 20.9 km/h 70 % 0.0 mm 281 W/m2
09:40 22.9 °C 17.1 °C 1014.1 hPa East 4.8 km/h 16.1 km/h 70 % 0.0 mm 308 W/m2
09:45 23.1 °C 17.3 °C 1013.8 hPa East 8.0 km/h 14.5 km/h 70 % 0.0 mm 313 W/m2
09:50 23.4 °C 17.4 °C 1014.1 hPa ENE 8.0 km/h 14.5 km/h 69 % 0.0 mm 345 W/m2
09:55 23.5 °C 17.3 °C 1013.8 hPa ESE 16.1 km/h 20.9 km/h 68 % 0.0 mm 287 W/m2
10:00 23.6 °C 17.3 °C 1013.8 hPa ENE 12.9 km/h 20.9 km/h 68 % 0.0 mm 241 W/m2
10:05 23.6 °C 17.3 °C 1013.8 hPa East 11.3 km/h 17.7 km/h 68 % 0.0 mm 223 W/m2
10:10 23.6 °C 17.1 °C 1013.8 hPa East 8.0 km/h 20.9 km/h 67 % 0.0 mm 232 W/m2
10:15 23.6 °C 17.1 °C 1013.8 hPa ESE 9.7 km/h 20.9 km/h 67 % 0.0 mm 232 W/m2
10:20 23.8 °C 17.3 °C 1013.4 hPa NE 3.2 km/h 17.7 km/h 67 % 0.0 mm 288 W/m2
10:25 24.1 °C 17.6 °C 1013.4 hPa ENE 12.9 km/h 17.7 km/h 67 % 0.0 mm 420 W/m2
10:30 24.5 °C 18.0 °C 1013.1 hPa ENE 25.7 km/h 25.7 km/h 67 % 0.0 mm 380 W/m2
10:35 24.6 °C 17.5 °C 1013.4 hPa ESE 11.3 km/h 25.7 km/h 65 % 0.0 mm 353 W/m2
10:40 24.9 °C 17.7 °C 1013.4 hPa East 14.5 km/h 25.7 km/h 64 % 0.0 mm 503 W/m2
10:45 25.0 °C 17.7 °C 1013.1 hPa East 11.3 km/h 25.7 km/h 64 % 0.0 mm 329 W/m2
10:55 24.8 °C 17.6 °C 1013.1 hPa East 16.1 km/h 30.6 km/h 64 % 0.0 mm 376 W/m2
11:00 25.2 °C 17.7 °C 1013.1 hPa ENE 6.4 km/h 25.7 km/h 63 % 0.0 mm 485 W/m2
11:05 25.6 °C 17.7 °C 1013.1 hPa East 12.9 km/h 22.5 km/h 62 % 0.0 mm 350 W/m2
11:10 25.5 °C 17.9 °C 1013.1 hPa East 9.7 km/h 20.9 km/h 63 % 0.0 mm 329 W/m2
11:15 25.4 °C 17.6 °C 1013.1 hPa ENE 20.9 km/h 24.1 km/h 62 % 0.0 mm 225 W/m2
11:20 25.2 °C 17.7 °C 1013.1 hPa ESE 11.3 km/h 24.1 km/h 63 % 0.0 mm 199 W/m2
11:25 25.2 °C 17.6 °C 1013.1 hPa ENE 4.8 km/h 22.5 km/h 63 % 0.0 mm 220 W/m2
11:30 25.3 °C 17.7 °C 1013.1 hPa ENE 4.8 km/h 24.1 km/h 63 % 0.0 mm 236 W/m2
11:35 25.3 °C 17.8 °C 1013.4 hPa ESE 1.6 km/h 24.1 km/h 63 % 0.0 mm 237 W/m2
11:40 25.4 °C 18.1 °C 1013.4 hPa East 4.8 km/h 24.1 km/h 64 % 0.0 mm 271 W/m2
11:45 25.7 °C 18.1 °C 1013.4 hPa East 9.7 km/h 22.5 km/h 63 % 0.0 mm 313 W/m2
11:50 25.9 °C 18.4 °C 1013.4 hPa ENE 12.9 km/h 22.5 km/h 63 % 0.0 mm 336 W/m2
11:55 26.3 °C 18.4 °C 1013.4 hPa East 4.8 km/h 17.7 km/h 62 % 0.0 mm 431 W/m2
12:00 26.7 °C 18.6 °C 1013.4 hPa East 11.3 km/h 17.7 km/h 61 % 0.0 mm 587 W/m2
12:05 27.4 °C 18.9 °C 1013.8 hPa East 3.2 km/h 14.5 km/h 60 % 0.0 mm 606 W/m2
12:10 28.1 °C 19.3 °C 1013.8 hPa ESE 3.2 km/h 16.1 km/h 59 % 0.0 mm 854 W/m2
12:15 28.9 °C 18.9 °C 1013.8 hPa ESE 12.9 km/h 16.1 km/h 55 % 0.0 mm 914 W/m2
12:20 29.3 °C 19.6 °C 1013.8 hPa ESE 6.4 km/h 17.7 km/h 56 % 0.0 mm 940 W/m2
12:25 29.6 °C 18.7 °C 1013.8 hPa SE 4.8 km/h 17.7 km/h 52 % 0.0 mm 882 W/m2
12:30 29.3 °C 18.1 °C 1013.8 hPa ESE 12.9 km/h 16.1 km/h 51 % 0.0 mm 464 W/m2
12:35 28.9 °C 18.1 °C 1013.8 hPa East 3.2 km/h 16.1 km/h 52 % 0.0 mm 485 W/m2
12:40 28.7 °C 17.9 °C 1013.4 hPa ENE 14.5 km/h 16.1 km/h 52 % 0.0 mm 496 W/m2
12:45 28.5 °C 18.0 °C 1013.4 hPa SE 1.6 km/h 16.1 km/h 53 % 0.0 mm 417 W/m2
12:50 28.7 °C 18.2 °C 1013.4 hPa ESE 12.9 km/h 16.1 km/h 53 % 0.0 mm 441 W/m2
12:55 29.4 °C 18.2 °C 1013.4 hPa SE 8.0 km/h 14.5 km/h 51 % 0.0 mm 417 W/m2
13:00 29.4 °C 18.2 °C 1013.4 hPa SE 8.0 km/h 14.5 km/h 51 % 0.0 mm 390 W/m2
13:05 29.9 °C 18.0 °C 1013.8 hPa ESE 4.8 km/h 16.1 km/h 49 % 0.0 mm 390 W/m2
13:10 30.8 °C 19.2 °C 1013.4 hPa SSE 8.0 km/h 16.1 km/h 50 % 0.0 mm 1086 W/m2
13:15 30.6 °C 18.0 °C 1013.4 hPa South 9.7 km/h 16.1 km/h 47 % 0.0 mm 334 W/m2
13:20 30.7 °C 18.7 °C 1013.4 hPa ENE 11.3 km/h 16.1 km/h 49 % 0.0 mm 881 W/m2
13:25 30.3 °C 18.7 °C 1013.1 hPa East 20.9 km/h 20.9 km/h 50 % 0.0 mm 323 W/m2
13:30 29.5 °C 18.3 °C 1012.8 hPa ENE 6.4 km/h 20.9 km/h 51 % 0.0 mm 269 W/m2
13:35 29.2 °C 18.4 °C 1012.8 hPa ENE 4.8 km/h 22.5 km/h 52 % 0.0 mm 257 W/m2
13:40 28.9 °C 18.0 °C 1012.8 hPa ENE 11.3 km/h 22.5 km/h 52 % 0.0 mm 301 W/m2
13:45 28.9 °C 18.1 °C 1012.8 hPa East 4.8 km/h 19.3 km/h 52 % 0.0 mm 359 W/m2
13:50 29.2 °C 18.4 °C 1012.4 hPa East 3.2 km/h 20.9 km/h 52 % 0.0 mm 396 W/m2
13:55 29.4 °C 18.5 °C 1012.8 hPa Calm   20.9 km/h 52 % 0.0 mm 483 W/m2
14:00 29.6 °C 19.0 °C 1013.1 hPa Calm   16.1 km/h 53 % 0.0 mm 487 W/m2
14:05 30.5 °C 18.6 °C 1013.1 hPa SSE 11.3 km/h 12.9 km/h 49 % 0.0 mm 865 W/m2
14:10 31.1 °C 19.4 °C 1013.1 hPa East 4.8 km/h 12.9 km/h 50 % 0.0 mm 997 W/m2
14:15 32.1 °C 19.0 °C 1013.1 hPa ESE 8.0 km/h 16.1 km/h 46 % 0.0 mm 1072 W/m2
14:20 32.1 °C 18.7 °C 1013.1 hPa SE 3.2 km/h 16.1 km/h 45 % 0.0 mm 1011 W/m2
14:25 31.8 °C 18.4 °C 1012.8 hPa ESE 8.0 km/h 17.7 km/h 45 % 0.0 mm 940 W/m2
14:30 32.6 °C 19.1 °C 1012.8 hPa ESE 11.3 km/h 17.7 km/h 45 % 0.0 mm 905 W/m2
14:35 32.3 °C 18.5 °C 1012.8 hPa ESE 4.8 km/h 17.7 km/h 44 % 0.0 mm 891 W/m2
14:40 32.3 °C 18.5 °C 1012.8 hPa SSE 6.4 km/h 16.1 km/h 44 % 0.0 mm 879 W/m2
14:45 32.5 °C 18.7 °C 1012.8 hPa ESE 11.3 km/h 17.7 km/h 44 % 0.0 mm 881 W/m2
14:50 32.6 °C 18.4 °C 1012.8 hPa ESE 6.4 km/h 17.7 km/h 43 % 0.0 mm 875 W/m2
14:55 32.8 °C 17.8 °C 1012.8 hPa SSE 8.0 km/h 17.7 km/h 41 % 0.0 mm 788 W/m2
15:00 32.6 °C 18.0 °C 1012.8 hPa South 11.3 km/h 17.7 km/h 42 % 0.0 mm 867 W/m2
15:05 32.6 °C 17.6 °C 1012.8 hPa SSE 9.7 km/h 17.7 km/h 41 % 0.0 mm 840 W/m2
15:10 33.1 °C 18.0 °C 1012.4 hPa SSE 6.4 km/h 17.7 km/h 41 % 0.0 mm 853 W/m2
15:15 32.9 °C 17.9 °C 1012.4 hPa SE 16.1 km/h 16.1 km/h 41 % 0.0 mm 853 W/m2
15:20 32.9 °C 17.9 °C 1012.4 hPa ESE 4.8 km/h 16.1 km/h 41 % 0.0 mm 846 W/m2
15:25 33.4 °C 18.8 °C 1012.1 hPa ESE 11.3 km/h 16.1 km/h 42 % 0.0 mm 881 W/m2
15:30 33.7 °C 17.8 °C 1012.4 hPa SSE 12.9 km/h 14.5 km/h 39 % 0.0 mm 900 W/m2
15:35 33.7 °C 18.2 °C 1012.4 hPa ESE 12.9 km/h 20.9 km/h 40 % 0.0 mm 831 W/m2
15:40 33.6 °C 18.1 °C 1012.4 hPa South 4.8 km/h 20.9 km/h 40 % 0.0 mm 819 W/m2
15:45 33.9 °C 18.4 °C 1012.4 hPa ESE 14.5 km/h 20.9 km/h 40 % 0.0 mm 812 W/m2
15:50 33.6 °C 18.1 °C 1012.4 hPa SE 11.3 km/h 20.9 km/h 40 % 0.0 mm 821 W/m2
15:55 33.7 °C 18.2 °C 1012.4 hPa SE 14.5 km/h 20.9 km/h 40 % 0.0 mm 858 W/m2
16:00 33.5 °C 18.8 °C 1012.4 hPa East 4.8 km/h 20.9 km/h 42 % 0.0 mm 867 W/m2
16:05 33.9 °C 18.4 °C 1012.1 hPa SSE 8.0 km/h 20.9 km/h 40 % 0.0 mm 796 W/m2
16:10 34.1 °C 18.1 °C 1012.1 hPa SSE 8.0 km/h 20.9 km/h 39 % 0.0 mm 775 W/m2
16:15 33.8 °C 17.1 °C 1012.1 hPa SSE 8.0 km/h 19.3 km/h 37 % 0.0 mm 768 W/m2
16:20 33.4 °C 17.2 °C 1012.1 hPa SSW 8.0 km/h 22.5 km/h 38 % 0.0 mm 765 W/m2
16:25 33.6 °C 17.7 °C 1012.1 hPa South 14.5 km/h 22.5 km/h 39 % 0.0 mm 756 W/m2
16:30 33.7 °C 17.4 °C 1012.1 hPa South 4.8 km/h 16.1 km/h 38 % 0.0 mm 737 W/m2
16:35 33.5 °C 17.6 °C 1012.1 hPa SE 16.1 km/h 24.1 km/h 39 % 0.0 mm 722 W/m2
16:40 33.9 °C 18.0 °C 1011.7 hPa SE 8.0 km/h 24.1 km/h 39 % 0.0 mm 721 W/m2
16:45 34.2 °C 17.8 °C 1012.1 hPa SE 12.9 km/h 19.3 km/h 38 % 0.0 mm 726 W/m2
16:50 34.1 °C 17.7 °C 1012.1 hPa SW 4.8 km/h 17.7 km/h 38 % 0.0 mm 714 W/m2
16:55 34.4 °C 18.5 °C 1011.7 hPa SE 4.8 km/h 17.7 km/h 39 % 0.0 mm 701 W/m2
17:00 34.3 °C 17.5 °C 1011.7 hPa ESE 12.9 km/h 20.9 km/h 37 % 0.0 mm 682 W/m2
17:05 34.5 °C 17.7 °C 1011.7 hPa East 16.1 km/h 20.9 km/h 37 % 0.0 mm 680 W/m2
17:10 34.5 °C 18.1 °C 1011.7 hPa East 1.6 km/h 16.1 km/h 38 % 0.0 mm 603 W/m2
17:15 34.6 °C 18.2 °C 1011.7 hPa ESE 8.0 km/h 16.1 km/h 38 % 0.0 mm 599 W/m2
17:20 34.1 °C 17.7 °C 1011.7 hPa ESE 11.3 km/h 16.1 km/h 38 % 0.0 mm 642 W/m2
17:25 34.3 °C 18.4 °C 1011.7 hPa SSW 9.7 km/h 16.1 km/h 39 % 0.0 mm 633 W/m2
17:30 34.2 °C 17.9 °C 1011.4 hPa East 9.7 km/h 14.5 km/h 38 % 0.0 mm 617 W/m2
17:35 34.3 °C 18.0 °C 1011.4 hPa SSE 3.2 km/h 14.5 km/h 38 % 0.0 mm 610 W/m2
17:40 34.4 °C 17.6 °C 1011.4 hPa SSE 3.2 km/h 14.5 km/h 37 % 0.0 mm 591 W/m2
17:45 34.3 °C 18.0 °C 1011.4 hPa SE 1.6 km/h 9.7 km/h 38 % 0.0 mm 575 W/m2
17:50 34.7 °C 18.3 °C 1011.4 hPa ESE 3.2 km/h 11.3 km/h 38 % 0.0 mm 573 W/m2
17:55 34.8 °C 17.9 °C 1011.4 hPa SSE 9.7 km/h 12.9 km/h 37 % 0.0 mm 557 W/m2
18:00 34.1 °C 18.2 °C 1011.4 hPa WNW 6.4 km/h 16.1 km/h 39 % 0.0 mm 547 W/m2
18:05 33.1 °C 18.0 °C 1011.7 hPa WSW 11.3 km/h 17.7 km/h 41 % 0.0 mm 538 W/m2
18:10 31.7 °C 18.0 °C 1011.7 hPa WSW 1.6 km/h 17.7 km/h 44 % 0.0 mm 538 W/m2
18:15 30.6 °C 18.0 °C 1011.7 hPa SW 8.0 km/h 19.3 km/h 47 % 0.0 mm 545 W/m2
18:20 29.7 °C 18.2 °C 1011.7 hPa WNW 11.3 km/h 20.9 km/h 50 % 0.0 mm 596 W/m2
18:25 29.4 °C 18.2 °C 1012.1 hPa SW 9.7 km/h 22.5 km/h 51 % 0.0 mm 610 W/m2
18:30 29.0 °C 18.1 °C 1012.1 hPa West 4.8 km/h 22.5 km/h 52 % 0.0 mm 316 W/m2
18:35 28.9 °C 18.1 °C 1012.1 hPa WSW 9.7 km/h 22.5 km/h 52 % 0.0 mm 520 W/m2
18:40 28.7 °C 18.7 °C 1012.1 hPa WSW 11.3 km/h 22.5 km/h 55 % 0.0 mm 392 W/m2
18:45 28.9 °C 18.3 °C 1011.7 hPa West 1.6 km/h 17.7 km/h 53 % 0.0 mm 425 W/m2
18:50 28.2 °C 18.3 °C 1012.1 hPa West 8.0 km/h 16.1 km/h 55 % 0.0 mm 503 W/m2
18:55 28.1 °C 18.5 °C 1012.1 hPa SW 6.4 km/h 16.1 km/h 56 % 0.0 mm 490 W/m2
19:00 28.1 °C 18.5 °C 1012.1 hPa WNW 6.4 km/h 20.9 km/h 56 % 0.0 mm 459 W/m2
19:05 27.6 °C 18.6 °C 1012.1 hPa WSW 12.9 km/h 20.9 km/h 58 % 0.0 mm 468 W/m2
19:10 27.8 °C 18.2 °C 1012.1 hPa WSW 9.7 km/h 20.9 km/h 56 % 0.0 mm 457 W/m2
19:15 28.2 °C 18.6 °C 1012.1 hPa WNW 6.4 km/h 20.9 km/h 56 % 0.0 mm 381 W/m2
19:20 27.9 °C 18.9 °C 1012.1 hPa SW 6.4 km/h 19.3 km/h 58 % 0.0 mm 401 W/m2
19:25 27.9 °C 18.9 °C 1012.1 hPa West 4.8 km/h 17.7 km/h 58 % 0.0 mm 348 W/m2
19:30 27.8 °C 18.8 °C 1012.1 hPa West 8.0 km/h 14.5 km/h 58 % 0.0 mm 309 W/m2
19:35 27.2 °C 18.5 °C 1012.1 hPa West 3.2 km/h 12.9 km/h 59 % 0.0 mm 290 W/m2
19:40 27.1 °C 18.6 °C 1012.1 hPa WSW 3.2 km/h 12.9 km/h 60 % 0.0 mm 272 W/m2
19:45 26.8 °C 18.4 °C 1012.1 hPa WSW 4.8 km/h 12.9 km/h 60 % 0.0 mm 250 W/m2
19:50 26.6 °C 18.4 °C 1012.1 hPa WSW 8.0 km/h 16.1 km/h 61 % 0.0 mm 225 W/m2
19:55 26.2 °C 18.4 °C 1012.1 hPa WSW 1.6 km/h 16.1 km/h 62 % 0.0 mm 209 W/m2
20:00 26.3 °C 18.4 °C 1012.1 hPa WSW 4.8 km/h 11.3 km/h 62 % 0.0 mm 193 W/m2
20:05 26.0 °C 18.2 °C 1012.1 hPa WSW 9.7 km/h 17.7 km/h 62 % 0.0 mm 179 W/m2
20:10 25.8 °C 18.5 °C 1012.1 hPa WNW 6.4 km/h 17.7 km/h 64 % 0.0 mm 163 W/m2
20:15 25.7 °C 18.1 °C 1012.1 hPa WSW 6.4 km/h 14.5 km/h 63 % 0.0 mm 128 W/m2
20:20 25.4 °C 18.1 °C 1012.4 hPa WSW 1.6 km/h 14.5 km/h 64 % 0.0 mm 144 W/m2
20:25 25.2 °C 18.2 °C 1012.4 hPa SW 6.4 km/h 12.9 km/h 65 % 0.0 mm 120 W/m2
20:30 25.0 °C 18.4 °C 1012.4 hPa West 6.4 km/h 11.3 km/h 67 % 0.0 mm 105 W/m2
20:35 24.8 °C 18.2 °C 1012.4 hPa WNW 4.8 km/h 11.3 km/h 67 % 0.0 mm 60 W/m2
20:40 24.4 °C 18.6 °C 1012.4 hPa WNW 3.2 km/h 11.3 km/h 70 % 0.0 mm 44 W/m2
20:45 24.2 °C 18.6 °C 1012.4 hPa SW 9.7 km/h 9.7 km/h 71 % 0.0 mm 42 W/m2
20:55 23.8 °C 18.4 °C 1012.4 hPa Calm   9.7 km/h 72 % 0.0 mm 40 W/m2
21:00 23.6 °C 18.5 °C 1012.4 hPa West 3.2 km/h 8.0 km/h 73 % 0.0 mm 44 W/m2
21:05 23.6 °C 18.6 °C 1012.4 hPa Calm   8.0 km/h 74 % 0.0 mm 35 W/m2
21:10 23.4 °C 18.5 °C 1012.4 hPa West 3.2 km/h 9.7 km/h 74 % 0.0 mm 26 W/m2
21:15 23.3 °C 18.4 °C 1012.4 hPa West 4.8 km/h 9.7 km/h 74 % 0.0 mm 23 W/m2
21:20 23.2 °C 18.5 °C 1012.4 hPa West 6.4 km/h 9.7 km/h 75 % 0.0 mm 18 W/m2
21:25 23.0 °C 18.3 °C 1012.4 hPa WNW 3.2 km/h 8.0 km/h 75 % 0.0 mm 18 W/m2
21:30 22.8 °C 18.2 °C 1012.4 hPa WNW 1.6 km/h 8.0 km/h 75 % 0.0 mm 16 W/m2
21:35 22.6 °C 18.2 °C 1012.8 hPa Calm   6.4 km/h 76 % 0.0 mm 14 W/m2
21:40 22.2 °C 18.1 °C 1012.8 hPa Calm   3.2 km/h 78 % 0.0 mm 12 W/m2
21:45 21.8 °C 18.0 °C 1012.8 hPa WNW 1.6 km/h 3.2 km/h 79 % 0.0 mm 11 W/m2
21:50 21.6 °C 18.0 °C 1012.8 hPa Calm   3.2 km/h 80 % 0.0 mm 9 W/m2
21:55 21.4 °C 18.0 °C 1012.8 hPa Calm   1.6 km/h 81 % 0.0 mm 7 W/m2
22:00 21.2 °C 18.0 °C 1012.8 hPa Calm     82 % 0.0 mm 0 W/m2
22:05 21.1 °C 18.1 °C 1012.8 hPa Calm     83 % 0.0 mm 0 W/m2
22:10 20.9 °C 17.9 °C 1012.8 hPa Calm     83 % 0.0 mm 0 W/m2
22:15 20.7 °C 17.9 °C 1012.8 hPa Calm     84 % 0.0 mm 0 W/m2
22:20 20.4 °C 17.8 °C 1012.8 hPa Calm     85 % 0.0 mm 0 W/m2
22:25 20.3 °C 17.7 °C 1013.1 hPa Calm     85 % 0.0 mm 0 W/m2
22:30 20.1 °C 17.7 °C 1013.1 hPa Calm     86 % 0.0 mm 0 W/m2
22:35 20.0 °C 17.6 °C 1013.1 hPa Calm     86 % 0.0 mm 0 W/m2
22:40 19.9 °C 17.5 °C 1013.1 hPa Calm     86 % 0.0 mm 0 W/m2
22:45 19.9 °C 17.7 °C 1012.8 hPa WNW 3.2 km/h 3.2 km/h 87 % 0.0 mm 0 W/m2
22:50 19.9 °C 17.7 °C 1013.1 hPa NW 4.8 km/h 4.8 km/h 87 % 0.0 mm 0 W/m2
22:55 20.4 °C 17.8 °C 1013.4 hPa Calm   6.4 km/h 85 % 0.0 mm 0 W/m2
23:00 20.3 °C 17.7 °C 1013.1 hPa West 1.6 km/h 6.4 km/h 85 % 0.0 mm 0 W/m2
23:05 20.2 °C 17.6 °C 1013.1 hPa Calm   3.2 km/h 85 % 0.0 mm 0 W/m2
23:10 20.2 °C 17.6 °C 1013.4 hPa Calm     85 % 0.0 mm 0 W/m2
23:15 20.2 °C 17.6 °C 1013.1 hPa Calm     85 % 0.0 mm 0 W/m2
23:20 20.2 °C 17.7 °C 1013.1 hPa Calm     86 % 0.0 mm 0 W/m2
23:25 20.6 °C 17.8 °C 1013.1 hPa Calm   4.8 km/h 84 % 0.0 mm 0 W/m2
23:30 21.1 °C 17.9 °C 1013.1 hPa Calm   4.8 km/h 82 % 0.0 mm 0 W/m2
23:35 20.9 °C 17.8 °C 1013.4 hPa Calm   4.8 km/h 82 % 0.0 mm 0 W/m2
23:40 20.7 °C 17.5 °C 1013.4 hPa Calm   4.8 km/h 82 % 0.0 mm 0 W/m2
23:45 20.3 °C 17.5 °C 1013.4 hPa SW 1.6 km/h 4.8 km/h 84 % 0.0 mm 0 W/m2
23:50 20.0 °C 17.4 °C 1013.4 hPa Calm   1.6 km/h 85 % 0.0 mm 0 W/m2
23:55 19.8 °C 17.4 °C 1013.4 hPa Calm     86 % 0.0 mm 0 W/m2
Avec l'autorisation de Weather Underground - 1.75 mb